Regional Weather Roundup
Issued by NWS Green Bay, WI

Home | Current Version | Previous Version | Graphics & Text | Print | Product List | Glossary Off
Versions: 1 2 3 4 5 6 7 8 9 10 11 12 13 14 15 16 17 18 19 20 21 22 23 24 25 26 27 28 29 30 31 32 33 34 35 36 37 38 39 40 41 42 43 44 45 46 47 48 49 50

000
ASUS43 KGRB 031811
RWRGRB

NORTH-CENTRAL AND NORTHEAST WISCONSIN REGIONAL WEATHER ROUNDUP
NATIONAL WEATHER SERVICE GREEN BAY WI
100 PM CDT THU SEP 03 2015

WIZ005-009-010>012-018-019-031900-
NORTH CENTRAL WISCONSIN

CITY           SKY/WX    TMP DP  RH WIND       PRES   REMARKS
IRONWOOD       SUNNY     79  61  53 E7        29.96F
MANITOWISH WTR MOSUNNY   76  62  61 NE6       30.00F
ARBOR VITAE    MOSUNNY   77  65  66 SE7       30.00S
EAGLE RIVER    MOSUNNY   76  61  60 E5        30.01S
LAND O LAKES   PTSUNNY   76  62  62 E5        30.02S
RHINELANDER    CLOUDY    73  63  70 NE7       30.01S
PHILLIPS       SUNNY     77  64  64 NE6       29.99S
ANTIGO         CLOUDY    71  65  81 NE5       30.00S
TOMAHAWK       PTSUNNY   72  64  74 CALM      30.00F
MERRILL        CLOUDY    72  65  79 NE6       29.99F
$$

WIZ013-073-031900-
NORTHEAST WISCONSIN

CITY           SKY/WX    TMP DP  RH WIND       PRES   REMARKS
IRON MOUNTAIN  CLOUDY    74  64  71 NE5       29.97F
MARINETTE      CLOUDY    73  64  73 E10       29.95S
OCONTO         CLOUDY    71  71  99 N7        29.95S
$$

WIZ017-030-035>037-045-031900-
CENTRAL WISCONSIN

CITY           SKY/WX    TMP DP  RH WIND       PRES   REMARKS
MEDFORD        CLOUDY    73  66  80 E8        29.99F
WAUSAU         CLOUDY    72  65  78 NE8       29.97S
MOSINEE        CLOUDY    73  66  78 E7        29.99S
MARSHFIELD     CLOUDY    73  63  70 NE7       29.98S
WISC RAPIDS    CLOUDY    75  64  68 E3        29.98S
STEVENS POINT  CLOUDY    74  65  74 E7        29.98S
WAUPACA        CLOUDY    76  68  78 NE6       29.97S
SHAWANO        NOT AVBL
CLINTONVILLE   CLOUDY    72  64  78 N9        29.96S
WAUTOMA        MOSUNNY   76  67  73 NE7       29.97S
$$

WIZ038-039-048-051-031900-
FOX VALLEY

CITY           SKY/WX    TMP DP  RH WIND       PRES   REMARKS
NWS GREEN BAY  CLOUDY    73  68  84 NE9       29.96R
APPLETON       CLOUDY    73  66  78 N9        29.95S
OSHKOSH        CLOUDY    73  66  78 N8        29.96R
FOND DU LAC    CLOUDY    73  67  81 NE8       29.96S
$$

WIZ022-050-052-031900-
EAST CENTRAL WISCONSIN

CITY           SKY/WX    TMP DP  RH WIND       PRES   REMARKS
EPHRAIM        CLOUDY    68  66  93 N7        29.94S
STURGEON BAY   CLOUDY    68  64  88 N9        29.97R
MANITOWOC      CLOUDY    72  67  84 MISG      29.94S
SHEBOYGAN      CLOUDY    74  67  78 NW12      29.94S
$$

LMZ563-521-522-541>543-031900-
LAKESHORE

STATION/POSITION TIME  TEMP    WIND        PRES    VSBY  WAVE
                       AIR SEA DIR/SP/G                  HT/PER
                 (UTC) (F)     (DEG/KT/KT) (MB)    (MI)  (FT/S)
SHEBOYGAN LKSHOR 1800   67      10/  5/  6 1013.7F
KEWAUNEE LKSHORE 1700   64      20/  6/  9 1012.7
ALGOMA MARINA    1714          350/  8/ 11   N/A
NORTHPORT PIER   1700   69      50/  7/  9 1013.9S
N MID LAKE BUOY  1750   67 66   30/  8/ 10 1013.4R         2/ 5
S GREEN BAY BUOY 1730   67 66   10/ 12/ 14 1015.4R
SISTER BAY LKSHO 1711   71      30/  7/  9   N/A
CHAMBERS ISLAND  1700   67     360/ 10/ 11 1014.2R
MENOMINEE LKSHOR 1700   65      10/ 12/ 12 1013.1
$$


USA.gov is the U.S. government's official web portal to all federal, state and local government web resources and services.